[ hide orbit diagram ]
For accurate long-term ephemerides, please instead use our Horizons system.This orbit viewer was implemented using two-body methods, and hence should not be used for determining accurate long-term trajectories (over several years or decades) or planetary encounter circumstances.
Orbital Elements at Epoch 2455379.5 (2010-Jul-02.0) TDB
Reference: JPL 6 (heliocentric ecliptic J2000)
Element | Value | Uncertainty (1-sigma) | Units |
e | .9037561916724222 | 0.0014191 | |
a | 8.217680146309727 | 0.12958 | au |
q | .7909008328987752 | 0.00080928 | au |
i | 147.0516809571623 | 0.008034 | deg |
node | 206.4730991405697 | 0.0034549 | deg |
peri | 214.7297449578989 | 0.10276 | deg |
M | 2.922640089023927 | 0.071473 | deg |
tp | 2455309.645383415886 (2010-Apr-23.14538342) | 0.056053 | TDB |
period | 8604.433390455408 23.56 | 203.52 0.5572 | d yr |
n | .04183889672495288 | 0.00098959 | deg/d |
Q | 15.64445945972068 | 0.24669 | au |
|
| | Orbit Determination Parameters
Additional Information
|
[ show covariance matrix ]
Alternate Designations
Perihelion Year (est.) | New-Style Desig | Roman Numeral | Year/ Letter | 2010.3 | C/2010 L5 | | |
|
|